Total_Precipitation_Accumulation
0.86 1.09 1.13 1.11 1.08 1.03 1.02 1.04 1.02 1.10 1.20 1.24 1.35 1.49 1.62 1.63 1.55 1.49 1.42 1.32 1.10 0.90
0.94 0.99 1.01 1.07 1.33 1.56 1.64 1.53 1.42 1.38 1.26 1.16 1.07 1.10 1.30 1.40 1.32 1.25 1.10 0.87 0.73 0.62
1.09 1.16 0.98 0.94 0.95 0.90 1.00 1.20 1.17 1.09 1.13 1.12 1.10 1.07 1.05 1.06 1.05 1.08 1.02 0.88 0.76 0.60
0.89 0.76 0.66 0.52 0.62 0.76 0.70 0.65 0.70 0.69 0.68 0.72 0.77 0.80 0.82 0.80 0.80 0.76 0.72 0.71 0.69 0.66
0.19 0.28 0.35 0.33 0.33 0.46 0.59 0.62 0.67 0.63 0.57 0.55 0.62 0.71 0.73 0.72 0.67 0.65 0.69 0.66 0.68 0.69
0.07 0.08 0.10 0.13 0.14 0.17 0.27 0.43 0.58 0.66 0.65 0.65 0.67 0.69 0.72 0.76 0.72 0.65 0.64 0.63 0.65 0.69
0.00 0.01 0.01 0.01 0.03 0.06 0.13 0.21 0.33 0.48 0.61 0.56 0.57 0.63 0.69 0.71 0.70 0.65 0.65 0.62 0.61 0.62
0.01 0.01 0.01 0.02 0.01 0.01 0.03 0.05 0.10 0.19 0.31 0.41 0.44 0.53 0.60 0.61 0.65 0.65 0.67 0.70 0.68 0.63
0.02 0.01 0.01 0.00 0.00 0.01 0.00 0.01 0.01 0.03 0.07 0.16 0.27 0.48 0.56 0.52 0.51 0.53 0.57 0.56 0.56 0.61
0.00 0.00 0.00 0.00 0.00 0.00 0.00 0.00 0.00 0.02 0.02 0.04 0.09 0.28 0.45 0.49 0.46 0.53 0.56 0.53 0.50 0.51
0.00 0.00 0.00 0.00 0.00 0.00 0.00 0.00 0.02 0.06 0.09 0.16 0.21 0.39 0.49 0.51 0.44 0.43 0.43 0.39 0.38 0.36
0.00 0.00 0.00 0.00 0.01 0.02 0.03 0.06 0.12 0.16 0.24 0.24 0.31 0.43 0.46 0.45 0.38 0.42 0.47 0.39 0.34 0.29
0.01 0.00 0.01 0.01 0.02 0.03 0.05 0.14 0.22 0.28 0.26 0.23 0.32 0.36 0.32 0.37 0.33 0.32 0.31 0.30 0.30 0.28
0.01 0.01 0.01 0.02 0.05 0.09 0.20 0.29 0.31 0.29 0.26 0.26 0.31 0.33 0.26 0.22 0.22 0.27 0.37 0.37 0.34 0.28